This is the latest recevied weather packets stored in our database for station/object WX5RP. If no packets are shown the sender has not sent any weather packets the latest 10 day(s).
| Time | Temp. | Humidity | Pressure | Rain* | Wind** | Luminosity | Snow |
|---|---|---|---|---|---|---|---|
| 1778226316 | 8.33° C | 56% | 1019.2 hPa | 0 mm | - | 0 W/m² | - |
| 1778225716 | 7.78° C | 58% | 1019.1 hPa | 0 mm | - | 0 W/m² | - |
| 1778225116 | 7.22° C | 64% | 1019.1 hPa | 0 mm | - | 0 W/m² | - |
| 1778224516 | 7.22° C | 62% | 1018.8 hPa | 0 mm | - | 0 W/m² | - |
| 1778223916 | 7.22° C | 66% | 1019.5 hPa | 0 mm | - | 0 W/m² | - |
| 1778223316 | 7.22° C | 64% | 1019 hPa | 0 mm | - | 0 W/m² | - |
| 1778222718 | 8.33° C | 60% | 1019.3 hPa | 0 mm | - | 0 W/m² | - |
| 1778222117 | 8.33° C | 60% | 1019.3 hPa | 0 mm | - | 0 W/m² | - |
| 1778221517 | 8.33° C | 62% | 1018.5 hPa | 0 mm | - | 0 W/m² | - |
| 1778220918 | 9.44° C | 61% | 1018.8 hPa | 0 mm | - | 0 W/m² | - |
| 1778220317 | 11.67° C | 54% | 1018.8 hPa | 0 mm | - | 0 W/m² | - |
| 1778219717 | 12.78° C | 52% | 1018.4 hPa | 0 mm | - | 0 W/m² | - |
| 1778219117 | 13.33° C | 49% | 1018.4 hPa | 0 mm | - | 0 W/m² | - |
| 1778218517 | 12.78° C | 49% | 1018.1 hPa | 0 mm | - | 0 W/m² | - |
| 1778217918 | 12.78° C | 50% | 1018.2 hPa | 0 mm | - | 0 W/m² | - |
| 1778217317 | 11.67° C | 52% | 1017.9 hPa | 0 mm | - | 0 W/m² | - |
| 1778216717 | 10° C | 61% | 1018.9 hPa | 0 mm | - | 0 W/m² | - |
| 1778216117 | 10.56° C | 56% | 1018 hPa | 0 mm | - | 0 W/m² | - |
| 1778215517 | 12.22° C | 53% | 1018.4 hPa | 0 mm | - | 0 W/m² | - |
| 1778214916 | 12.78° C | 46% | 1017.8 hPa | 0 mm | - | 0 W/m² | - |
| 1778214316 | 13.33° C | 48% | 1017.5 hPa | 0 mm | - | 0 W/m² | - |
| 1778213717 | 15° C | 41% | 1017.7 hPa | 0 mm | - | 0 W/m² | - |
| 1778213117 | 15.56° C | 39% | 1018.2 hPa | 0 mm | - | 0 W/m² | - |
| 1778212516 | 15° C | 40% | 1017.6 hPa | 0 mm | - | 0 W/m² | - |
| 1778211916 | 15° C | 42% | 1017.6 hPa | 0 mm | - | 0 W/m² | - |
* Rain latest hour (hover to see other rain measurements)
** Current wind speed in m/s (hover to see current wind gust speed)